[[{"header":{"parameterUnit":"m.s-1","parameterCategory":1,"la1":30.2991,"la2":30.254,"lo1":-89.0895,"lo2":-89.0444,"dy":0.0017,"dx":0.0017,"nx":28,"ny":28,"refTime":"2025-11-20T03:00:00:Z","depth":0,"parameterNumber":2,"parameterNumberName":"U-component_of_WINDS"},"data":[0,0,0,0,0,0,0,0,0,0,0,0,0,0,0,0,0,0,0,0,0,0,0,0,0,0,0,0,0,0,0,0,0,0,0,0,0,0,0,0,0,0,0,0,0,0,0,0,0,0,0,0,0,0,0,0,0,0,-2.3691,-2.3691,0,-2.3679,-2.3678,-2.3678,-2.3615,-2.3613,-2.3612,-2.361,-2.3598,-2.3599,-2.36,0,0,0,0,0,0,0,0,0,0,0,0,0,-2.3661,-2.3662,-2.3691,-2.3691,-2.3691,-2.3679,-2.3678,-2.3678,-2.3615,-2.3613,-2.3612,-2.361,-2.3598,-2.3599,-2.36,0,0,0,0,0,0,0,0,0,0,0,0,0,-2.3664,-2.3662,-2.3691,-2.3658,-2.3655,-2.3679,-2.3678,-2.3678,-2.3616,-2.3613,-2.3611,-2.3609,-2.3597,-2.3599,-2.36,-2.3655,0,0,-2.3605,-2.3606,0,0,0,0,0,0,0,0,-2.3664,-2.3665,-2.3663,-2.366,-2.3657,-2.3646,-2.3663,-2.3671,-2.3616,-2.363,-2.361,-2.3608,-2.3616,-2.3616,-2.3618,-2.3655,-2.3654,-2.3605,-2.3606,-2.3607,-2.3608,0,0,0,0,0,0,0,-2.3664,-2.3665,-2.3686,-2.3663,-2.3659,-2.3644,-2.3642,-2.3664,-2.3636,-2.3629,-2.3624,-2.3624,-2.3614,-2.3617,-2.3618,-2.3654,-2.3605,-2.3607,-2.3608,-2.3608,-2.3736,-2.3738,0,0,0,0,0,0,-2.3668,-2.3666,-2.3686,-2.3686,-2.3655,-2.3646,-2.3644,-2.3652,-2.3635,-2.3631,-2.3626,-2.3621,-2.3615,-2.3616,-2.3617,-2.368,-2.3607,-2.3609,-2.3609,-2.3734,-2.3736,-2.3739,0,0,0,0,0,0,-2.3668,-2.3671,-2.3687,-2.3674,-2.3675,-2.3649,-2.3658,-2.3653,-2.3656,-2.3633,-2.3628,-2.3634,-2.3614,-2.3615,-2.3646,-2.3679,-2.3609,-2.3611,-2.3731,-2.3734,-2.3738,-2.3807,0,0,0,0,0,0,-2.3667,-2.3671,-2.3691,-2.3675,-2.3676,-2.3716,-2.366,-2.3654,-2.3659,-2.3652,-2.364,-2.3635,-2.3612,-2.3644,-2.3648,-2.368,-2.3612,-2.3728,-2.3732,-2.3737,-2.3802,-2.3812,-2.3822,0,0,0,0,0,-2.3666,-2.3711,-2.3692,-2.3695,-2.3701,-2.3718,-2.3719,-2.3691,-2.3662,-2.3682,-2.3668,-2.3636,-2.3675,-2.3648,-2.3652,-2.3684,-2.3725,-2.3731,-2.3736,-2.3797,-2.381,-2.3822,0,0,0,0,0,0,-2.373,-2.3708,-2.3687,-2.3728,-2.3726,-2.3708,-2.3732,-2.3706,-2.3712,-2.3705,-2.3671,-2.3669,-2.3705,-2.3698,-2.3669,-2.3737,-2.3695,-2.3701,-2.374,-2.3752,-2.3762,-2.3762,-2.3613,0,0,0,0,0,-2.375,-2.3765,-2.3745,-2.3783,-2.3783,-2.3758,-2.3765,-2.3744,-2.374,-2.3738,-2.3726,-2.3724,-2.3736,-2.3744,-2.3754,-2.3801,-2.3797,-2.3826,-2.3836,-2.3844,-2.3849,-2.3874,-2.3886,-2.3757,-2.3757,-2.3757,0,0,-2.3788,-2.3778,-2.379,-2.3796,-2.3791,-2.3809,-2.3758,-2.3778,-2.379,-2.3741,-2.377,-2.3762,-2.3757,-2.3797,-2.3814,-2.3792,-2.3885,-2.3851,-2.3858,-2.3859,-2.3881,-2.3893,-2.3904,-2.3761,-2.376,-2.3759,0,0,-2.3868,-2.3862,-2.3893,-2.389,-2.3885,-2.3868,-2.3876,-2.3863,-2.3855,-2.3884,-2.3848,-2.3863,-2.3884,-2.3882,-2.3884,-2.3966,-2.3936,-2.397,-2.4022,-2.4046,-2.4056,-2.4065,-2.4094,-2.4104,-2.3976,-2.3976,-2.3976,0,-2.3917,-2.3941,-2.3912,-2.3935,-2.3939,-2.3897,-2.3928,-2.3927,-2.3925,-2.3928,-2.3904,-2.3931,-2.3924,-2.3963,-2.3983,-2.3987,-2.3994,-2.397,-2.4057,-2.4066,-2.4074,-2.41,-2.4111,-2.398,-2.3979,-2.3979,-2.3979,0,-2.4002,-2.402,-2.4046,-2.4045,-2.4052,-2.4079,-2.4054,-2.4065,-2.4045,-2.4031,-2.4061,-2.4053,-2.406,-2.4069,-2.4048,-2.4105,-2.4092,-2.4064,-2.402,-2.4091,-2.4115,-2.4125,-2.3986,-2.3984,-2.3983,-2.3982,0,0,-2.4118,-2.4103,-2.4113,-2.4112,-2.4104,-2.4118,-2.4144,-2.4151,-2.4161,-2.4162,-2.4183,-2.4203,-2.4177,-2.4179,-2.4159,-2.4181,-2.4245,-2.4149,-2.4149,-2.4166,-2.4307,-2.4327,-2.4339,-2.4227,-2.4229,-2.4231,-2.4307,0,-2.4193,-2.4236,-2.4212,-2.4258,-2.4274,-2.4236,-2.4258,-2.4256,-2.4245,-2.4258,-2.4245,-2.426,-2.4225,-2.4226,-2.4246,-2.4233,-2.4273,-2.4228,-2.4245,-2.4246,-2.4246,-2.4352,-2.4373,-2.4445,-2.4316,-2.4318,-2.4319,0,-2.4286,-2.4291,-2.4339,-2.4329,-2.4335,-2.4356,-2.4361,-2.4374,-2.4371,-2.4362,-2.4366,-2.4341,-2.4366,-2.4325,-2.4359,-2.4329,-2.4335,-2.4331,-2.4333,-2.4331,-2.4285,-2.4352,-2.4468,-2.4478,-2.4334,-2.4333,-2.4332,0,-2.4364,-2.4384,-2.4415,-2.4416,-2.4406,-2.4421,-2.4418,-2.4413,-2.4419,-2.4425,-2.4429,-2.4437,-2.4441,-2.4449,-2.4427,-2.4399,-2.4464,-2.4421,-2.4456,-2.4457,-2.447,-2.4469,-2.4586,-2.4477,-2.4477,-2.4477,-2.4477,0,-2.4449,-2.448,-2.445,-2.4469,-2.4503,-2.4476,-2.451,-2.4503,-2.4499,-2.4516,-2.4484,-2.4501,-2.4472,-2.4487,-2.447,-2.4501,-2.4503,-2.4496,-2.4491,-2.4498,-2.4498,-2.45,-2.4493,-2.448,-2.4479,-2.4479,-2.4478,0,-2.4541,-2.4523,-2.4555,-2.4543,-2.4541,-2.4566,-2.4556,-2.4573,-2.4561,-2.4583,-2.4587,-2.4568,-2.4583,-2.4563,-2.4576,-2.4565,-2.4606,-2.4595,-2.4607,-2.4603,-2.4639,-2.4635,-2.4759,-2.4774,-2.4657,-2.4659,-2.466,0,-2.4596,-2.4618,-2.461,-2.4619,-2.4618,-2.4633,-2.464,-2.4615,-2.4624,-2.4624,-2.4641,-2.4654,-2.4663,-2.4689,-2.4676,-2.4686,-2.4673,-2.4717,-2.4675,-2.4681,-2.4672,-2.4671,-2.4672,-2.4724,-2.4726,-2.4727,-2.4728,0,-2.4694,-2.4684,-2.4695,-2.4704,-2.4713,-2.4719,-2.4722,-2.4732,-2.4706,-2.4717,-2.4733,-2.474,-2.4754,-2.4767,-2.4774,-2.477,-2.4745,-2.4742,-2.475,-2.4756,-2.4762,-2.4758,-2.4628,-2.4738,-2.4737,-2.4736,-2.4736,-2.4735,-2.4768,-2.4786,-2.4783,-2.4797,-2.4797,-2.4802,-2.4817,-2.4808,-2.482,-2.483,-2.4815,-2.4835,-2.4833,-2.484,-2.484,-2.4855,-2.4836,-2.4848,-2.4851,-2.4854,-2.4859,-2.4762,-2.4856,-2.4856,-2.4856,-2.4855,-2.4855,0,-2.4863,-2.486,-2.4873,-2.4879,-2.489,-2.4867,-2.487,-2.488,-2.4898,-2.4899,-2.4908,-2.4927,-2.494,-2.4929,-2.494,-2.4954,-2.4943,-2.4957,-2.4955,-2.4955,-2.4876,-2.4867,-2.4966,-2.4966,-2.4966,-2.4966,-2.4966,-2.4966,-2.4913,-2.4944,-2.4934,-2.4965,-2.4961,-2.498,-2.4984,-2.4988,-2.4988,-2.501,-2.5021,-2.5015,-2.5011,-2.5022,-2.5033,-2.5029,-2.5034,-2.5053,-2.5045,-2.4971,-2.496,-2.495,-2.4941,-2.5055,-2.5055,-2.5122,-2.5123,-2.5124]},{"header":{"parameterUnit":"m.s-1","parameterCategory":1,"la1":30.2991,"la2":30.254,"lo1":-89.0895,"lo2":-89.0444,"dy":0.0017,"dx":0.0017,"nx":28,"ny":28,"refTime":"2025-11-20T03:00:00:Z","depth":0,"parameterNumber":3,"parameterNumberName":"V-component_of_WINDS"},"data":[0,0,0,0,0,0,0,0,0,0,0,0,0,0,0,0,0,0,0,0,0,0,0,0,0,0,0,0,0,0,0,0,0,0,0,0,0,0,0,0,0,0,0,0,0,0,0,0,0,0,0,0,0,0,0,0,0,0,0.1261,0.1261,0,0.1312,0.1313,0.1313,0.1378,0.1379,0.138,0.1381,0.1433,0.1433,0.1434,0,0,0,0,0,0,0,0,0,0,0,0,0,0.1219,0.1219,0.126,0.1261,0.1262,0.1312,0.1313,0.1314,0.1377,0.1379,0.138,0.1381,0.1433,0.1433,0.1434,0,0,0,0,0,0,0,0,0,0,0,0,0,0.125,0.122,0.126,0.13,0.1304,0.1312,0.1313,0.1314,0.1377,0.1379,0.138,0.1382,0.1433,0.1433,0.1434,0.1407,0,0,0.1436,0.1436,0,0,0,0,0,0,0,0,0.1249,0.1252,0.1293,0.1297,0.1302,0.134,0.1318,0.1345,0.1377,0.1349,0.1381,0.1382,0.1401,0.1404,0.141,0.141,0.1412,0.1436,0.1436,0.1437,0.1437,0,0,0,0,0,0,0,0.1246,0.125,0.1281,0.1294,0.1299,0.1316,0.1322,0.1323,0.1366,0.1352,0.1357,0.1362,0.1403,0.141,0.1412,0.1413,0.1436,0.1437,0.1437,0.1437,0.1397,0.1396,0,0,0,0,0,0,0.1238,0.1248,0.1279,0.1283,0.1278,0.1315,0.1322,0.1326,0.1366,0.1374,0.1361,0.1365,0.1408,0.1411,0.1414,0.1388,0.1437,0.1437,0.1438,0.1399,0.1397,0.1395,0,0,0,0,0,0,0.1237,0.124,0.1277,0.1267,0.1272,0.1314,0.1318,0.1326,0.1333,0.1373,0.1381,0.1359,0.1409,0.1413,0.141,0.1391,0.1438,0.1438,0.14,0.1398,0.1396,0.1334,0,0,0,0,0,0,0.1235,0.1239,0.1229,0.1266,0.1273,0.1271,0.1317,0.1326,0.1334,0.134,0.1373,0.138,0.1411,0.1408,0.141,0.1393,0.1439,0.1402,0.1399,0.1397,0.1338,0.133,0.1324,0,0,0,0,0,0.1234,0.1209,0.1228,0.1232,0.1261,0.127,0.1274,0.1309,0.1332,0.1323,0.1349,0.1379,0.1393,0.1407,0.141,0.1392,0.1403,0.14,0.1397,0.1342,0.1332,0.1324,0,0,0,0,0,0,0.1168,0.1214,0.1236,0.1222,0.1242,0.128,0.1269,0.1297,0.131,0.1315,0.1359,0.1366,0.1357,0.1375,0.139,0.1371,0.1403,0.14,0.136,0.1351,0.1344,0.134,0.1439,0,0,0,0,0,0.1152,0.1155,0.1195,0.1179,0.1188,0.1227,0.1232,0.1258,0.128,0.1288,0.1314,0.1334,0.1343,0.1348,0.1358,0.1341,0.1351,0.1331,0.1323,0.1317,0.1314,0.131,0.1302,0.1384,0.1384,0.1384,0,0,0.1118,0.1144,0.1143,0.1167,0.1185,0.1188,0.1233,0.1234,0.1237,0.1288,0.1287,0.1307,0.1332,0.1322,0.1319,0.1336,0.1294,0.1313,0.1308,0.1308,0.1305,0.1298,0.1291,0.1382,0.1382,0.1383,0,0,0.106,0.1078,0.1069,0.1086,0.1114,0.114,0.1138,0.1173,0.1189,0.1188,0.1228,0.1232,0.1246,0.1264,0.1274,0.1226,0.1255,0.1228,0.1189,0.1184,0.1178,0.1172,0.1157,0.1151,0.1225,0.1224,0.1224,0,0.1015,0.1021,0.106,0.1059,0.1069,0.1117,0.1108,0.1124,0.1152,0.1159,0.1178,0.1199,0.1219,0.1215,0.1204,0.121,0.121,0.1224,0.1176,0.117,0.1166,0.1152,0.1146,0.1221,0.1221,0.1222,0.1222,0,0.0965,0.0969,0.0958,0.0986,0.0995,0.099,0.103,0.1034,0.106,0.1085,0.1086,0.1112,0.113,0.1131,0.1155,0.1132,0.1142,0.1167,0.1201,0.1154,0.1142,0.1136,0.1216,0.1217,0.1218,0.1219,0,0,0.0864,0.0917,0.0912,0.0927,0.0962,0.0966,0.0964,0.0983,0.0987,0.1006,0.1006,0.1019,0.1044,0.1056,0.1083,0.1079,0.1042,0.1105,0.1107,0.1094,0.102,0.1001,0.0994,0.1061,0.106,0.106,0.1018,0,0.0813,0.0813,0.085,0.084,0.0845,0.0892,0.0891,0.0913,0.0937,0.0946,0.0973,0.0982,0.1013,0.1021,0.1018,0.1046,0.1027,0.105,0.1064,0.1064,0.1057,0.0987,0.0967,0.0926,0.1014,0.1013,0.1012,0,0.0753,0.077,0.0761,0.0799,0.0803,0.0801,0.0823,0.083,0.0857,0.0875,0.089,0.0922,0.0925,0.0956,0.0961,0.0976,0.0984,0.0999,0.0998,0.1002,0.1035,0.099,0.0914,0.0909,0.1004,0.1005,0.1006,0,0.0682,0.0703,0.0702,0.0712,0.0756,0.0755,0.0773,0.0801,0.0811,0.083,0.0837,0.0856,0.0866,0.088,0.0917,0.0936,0.092,0.0953,0.0936,0.0935,0.093,0.093,0.0856,0.0933,0.0933,0.0934,0.0934,0,0.0622,0.0615,0.0671,0.067,0.0664,0.0707,0.0701,0.0724,0.0749,0.0755,0.0796,0.08,0.0848,0.0858,0.0887,0.0889,0.0893,0.0908,0.0916,0.0905,0.0903,0.0911,0.0916,0.0932,0.0932,0.0933,0.0933,0,0.0542,0.0579,0.0581,0.0623,0.0634,0.0628,0.0665,0.0667,0.0694,0.0701,0.0705,0.0748,0.0762,0.0801,0.0824,0.0844,0.0838,0.0852,0.0829,0.0834,0.0815,0.0817,0.0745,0.0738,0.0818,0.0817,0.0816,0,0.0501,0.0497,0.054,0.0547,0.0564,0.0574,0.0585,0.0628,0.0638,0.067,0.0668,0.0686,0.0702,0.0723,0.0757,0.0777,0.0792,0.0766,0.0795,0.0785,0.0794,0.0794,0.0795,0.0759,0.0758,0.0757,0.0756,0,0.0426,0.0445,0.0459,0.048,0.0492,0.0511,0.0532,0.0535,0.0584,0.0593,0.0609,0.0621,0.0647,0.0665,0.069,0.071,0.0742,0.0747,0.0744,0.0733,0.0721,0.0729,0.0812,0.0748,0.0749,0.075,0.075,0.075,0.0366,0.0365,0.0396,0.0411,0.0432,0.0451,0.0456,0.0485,0.0499,0.0523,0.0548,0.0562,0.0592,0.0629,0.0648,0.066,0.0676,0.0671,0.0671,0.0669,0.0665,0.0718,0.0664,0.0664,0.0665,0.0665,0.0665,0,0.0294,0.0317,0.033,0.0359,0.0371,0.0401,0.0426,0.0435,0.0447,0.0472,0.0488,0.0508,0.0526,0.0563,0.0585,0.0588,0.0603,0.0592,0.0593,0.0598,0.0648,0.0649,0.058,0.058,0.058,0.058,0.058,0.058,0.0258,0.026,0.0283,0.0297,0.032,0.0334,0.0347,0.0366,0.0387,0.0407,0.0423,0.0447,0.0477,0.0503,0.0522,0.0532,0.0539,0.0524,0.0539,0.0585,0.0593,0.0601,0.0602,0.0524,0.0524,0.0487,0.0487,0.0487]}]]